Location: Newark
(12.4436°N, 0.6167°W)
Time: 03:03:31
(UTC+00:00)

Vanguard 1 - Pass Details

Date: 11 December 2019
Orbit: 651 x 3832 km, 34.2° (Epoch: 20 January)

Event Time Altitude Azimuth Distance (km) Brightness Sun altitude
Rises 08:08:05 0° 299° (WNW) 7,755 14.1 24.0°
Reaches altitude 10° 08:14:47 10° 308° (NW) 6,400 13.7 25.4°
Maximum altitude 08:31:12 35° 7° (N) 3,420 12.8 28.7°
Drops below altitude 10° 08:41:06 10° 70° (ENE) 3,916 13.7 30.7°
Sets 08:44:01 0° 80° (E) 4,542 14.0 31.3°
